| time (UTC) | temp C | wind direction | speed KPH | gust KPH | rain 1hr cm | rain 24hr cm | rain mn cm | humidity % | barometer mb |
| 20260508025836 | 14 | 350 | 1.6 | 3.2 | 0.00 | 0.00 | 0.00 | 89 | 1014.1 |
| 20260508024839 | 13 | 348 | 0.0 | 3.2 | 0.00 | 0.00 | 0.00 | 89 | 1014.2 |
| 20260508024331 | 13 | 348 | 0.0 | 0.0 | 0.00 | 0.00 | 0.00 | 88 | 1014.2 |
| 20260508023838 | 13 | 348 | 0.0 | 0.0 | 0.00 | 0.00 | 0.00 | 88 | 1014.2 |
| 20260508023331 | 13 | 348 | 0.0 | 1.6 | 0.00 | 0.00 | 0.00 | 88 | 1014.2 |
| 20260508022330 | 14 | 348 | 0.0 | 3.2 | 0.00 | 0.00 | 0.00 | 87 | 1014.1 |
| 20260508021833 | 15 | 348 | 0.0 | 8.0 | 0.00 | 0.00 | 0.00 | 88 | 1014.1 |
| 20260508021346 | 15 | 348 | 3.2 | 8.0 | 0.00 | 0.00 | 0.00 | 88 | 1014.0 |
| 20260508020851 | 15 | 350 | 3.2 | 8.0 | 0.00 | 0.00 | 0.00 | 88 | 1014.0 |
| 20260508013334 | 15 | 335 | 0.0 | 0.0 | 0.00 | 0.00 | 0.00 | 85 | 1014.1 |
| 20260508012838 | 15 | 357 | 0.0 | 0.0 | 0.00 | 0.00 | 0.00 | 85 | 1014.1 |
| 20260508012333 | 15 | 357 | 0.0 | 0.0 | 0.00 | 0.00 | 0.00 | 85 | 1014.1 |
| 20260508011837 | 15 | 357 | 0.0 | 0.0 | 0.00 | 0.00 | 0.00 | 85 | 1014.2 |
| 20260508011348 | 15 | 357 | 0.0 | 0.0 | 0.00 | 0.00 | 0.00 | 85 | 1014.3 |
| 20260508010849 | 15 | 357 | 0.0 | 0.0 | 0.00 | 0.00 | 0.00 | 85 | 1014.3 |
| 20260508010340 | 15 | 357 | 0.0 | 0.0 | 0.00 | 0.00 | 0.00 | 84 | 1014.4 |
| 20260508005332 | 15 | 357 | 0.0 | 0.0 | 0.00 | 0.00 | 0.00 | 85 | 1014.6 |
| 20260508004838 | 15 | 357 | 0.0 | 0.0 | 0.00 | 0.00 | 0.00 | 85 | 1014.6 |
| 20260508004349 | 15 | 357 | 0.0 | 0.0 | 0.00 | 0.00 | 0.00 | 85 | 1014.6 |
| 20260508003836 | 15 | 357 | 0.0 | 0.0 | 0.00 | 0.00 | 0.00 | 85 | 1014.7 |
| 20260508003349 | 15 | 357 | 0.0 | 0.0 | 0.00 | 0.00 | 0.00 | 85 | 1014.8 |
| 20260508002835 | 15 | 357 | 0.0 | 0.0 | 0.00 | 0.00 | 0.00 | 85 | 1014.8 |
| 20260508001833 | 15 | 357 | 0.0 | 0.0 | 0.00 | 0.00 | 0.00 | 84 | 1015.0 |
| 20260508001343 | 15 | 357 | 0.0 | 0.0 | 0.00 | 0.00 | 0.00 | 84 | 1014.9 |
| 20260508000836 | 15 | 357 | 0.0 | 0.0 | 0.00 | 0.00 | 0.00 | 84 | 1015.0 |
| 20260508000349 | 15 | 357 | 0.0 | 0.0 | 0.00 | 0.00 | 0.00 | 85 | 1015.0 |
| 20260507235335 | 15 | 357 | 0.0 | 0.0 | 0.00 | 0.00 | 0.00 | 84 | 1015.0 |
| 20260507234840 | 15 | 357 | 0.0 | 0.0 | 0.00 | 0.00 | 0.00 | 84 | 1015.0 |
| 20260507234331 | 15 | 357 | 0.0 | 0.0 | 0.00 | 0.00 | 0.00 | 84 | 1015.0 |
| 20260507233836 | 15 | 357 | 0.0 | 0.0 | 0.00 | 0.00 | 0.00 | 84 | 1015.1 |
| 20260507232839 | 15 | 2 | 0.0 | 0.0 | 0.00 | 0.00 | 0.00 | 85 | 1015.0 |
| 20260507231838 | 16 | 17 | 0.0 | 0.0 | 0.00 | 0.00 | 0.00 | 85 | 1015.1 |
| 20260507231329 | 16 | 2 | 0.0 | 0.0 | 0.00 | 0.00 | 0.00 | 85 | 1015.1 |
| 20260507230831 | 16 | 2 | 0.0 | 0.0 | 0.00 | 0.00 | 0.00 | 85 | 1015.2 |
| 20260507230342 | 16 | 2 | 0.0 | 0.0 | 0.00 | 0.00 | 0.00 | 85 | 1015.1 |
| 20260507225839 | 16 | 20 | 0.0 | 0.0 | 0.00 | 0.00 | 0.00 | 85 | 1015.1 |
| 20260507224840 | 16 | 12 | 0.0 | 0.0 | 0.00 | 0.00 | 0.00 | 85 | 1015.1 |
| 20260507224330 | 16 | 11 | 0.0 | 0.0 | 0.00 | 0.00 | 0.00 | 84 | 1015.1 |
| 20260507222837 | 16 | 7 | 0.0 | 0.0 | 0.00 | 0.00 | 0.00 | 84 | 1015.2 |
| 20260507222331 | 16 | 7 | 0.0 | 0.0 | 0.00 | 0.00 | 0.00 | 84 | 1015.1 |
| 20260507221838 | 16 | 7 | 0.0 | 0.0 | 0.00 | 0.00 | 0.00 | 84 | 1015.1 |
| 20260507221331 | 16 | 7 | 0.0 | 0.0 | 0.00 | 0.00 | 0.00 | 83 | 1015.0 |
| 20260507220330 | 16 | 21 | 0.0 | 0.0 | 0.00 | 0.00 | 0.00 | 83 | 1015.0 |
| 20260507215843 | 16 | 26 | 0.0 | 0.0 | 0.00 | 0.00 | 0.00 | 83 | 1015.0 |
| 20260507215334 | 16 | 26 | 0.0 | 0.0 | 0.00 | 0.00 | 0.00 | 82 | 1014.9 |
| 20260507214842 | 16 | 26 | 0.0 | 0.0 | 0.00 | 0.00 | 0.00 | 82 | 1014.9 |
| 20260507213844 | 16 | 26 | 0.0 | 0.0 | 0.00 | 0.00 | 0.00 | 82 | 1015.0 |
| 20260507213335 | 16 | 27 | 0.0 | 0.0 | 0.00 | 0.00 | 0.00 | 82 | 1015.0 |
| 20260507212842 | 16 | 27 | 0.0 | 0.0 | 0.00 | 0.00 | 0.00 | 82 | 1014.9 |
| 20260507212330 | 16 | 32 | 0.0 | 0.0 | 0.00 | 0.00 | 0.00 | 82 | 1014.9 |
| 20260507211837 | 16 | 33 | 0.0 | 0.0 | 0.00 | 0.00 | 0.00 | 82 | 1014.9 |
| 20260507211330 | 16 | 125 | 0.0 | 0.0 | 0.00 | 0.00 | 0.00 | 81 | 1014.8 |
| 20260507210837 | 16 | 125 | 0.0 | 0.0 | 0.00 | 0.00 | 0.00 | 82 | 1014.9 |
| 20260507210347 | 16 | 125 | 0.0 | 0.0 | 0.00 | 0.00 | 0.00 | 82 | 1014.9 |
| 20260507205841 | 16 | 125 | 0.0 | 0.0 | 0.00 | 0.00 | 0.00 | 82 | 1014.8 |
| 20260507204838 | 16 | 125 | 0.0 | 0.0 | 0.00 | 0.00 | 0.00 | 81 | 1014.8 |
| 20260507204331 | 16 | 125 | 0.0 | 0.0 | 0.00 | 0.00 | 0.00 | 81 | 1014.7 |
| 20260507203840 | 16 | 125 | 0.0 | 0.0 | 0.00 | 0.00 | 0.00 | 81 | 1014.7 |
| 20260507203332 | 16 | 125 | 0.0 | 0.0 | 0.00 | 0.00 | 0.00 | 81 | 1014.6 |
| 20260507202838 | 16 | 125 | 0.0 | 0.0 | 0.00 | 0.00 | 0.00 | 81 | 1014.5 |
| 20260507202329 | 16 | 125 | 0.0 | 0.0 | 0.00 | 0.00 | 0.00 | 81 | 1014.5 |
| 20260507201833 | 16 | 125 | 0.0 | 0.0 | 0.00 | 0.00 | 0.00 | 81 | 1014.4 |
| 20260507201342 | 16 | 125 | 0.0 | 0.0 | 0.00 | 0.00 | 0.00 | 81 | 1014.4 |
| 20260507200829 | 17 | 129 | 0.0 | 0.0 | 0.00 | 0.00 | 0.00 | 80 | 1014.4 |
| 20260507200342 | 17 | 129 | 0.0 | 0.0 | 0.00 | 0.00 | 0.00 | 80 | 1014.3 |
| 20260507195838 | 17 | 129 | 0.0 | 0.0 | 0.00 | 0.00 | 0.00 | 80 | 1014.3 |
| 20260507195347 | 17 | 129 | 0.0 | 0.0 | 0.00 | 0.00 | 0.00 | 80 | 1014.2 |
| 20260507194832 | 17 | 129 | 0.0 | 0.0 | 0.00 | 0.00 | 0.00 | 80 | 1014.1 |
| 20260507194343 | 17 | 129 | 0.0 | 0.0 | 0.00 | 0.00 | 0.00 | 80 | 1014.0 |
| 20260507193829 | 17 | 129 | 0.0 | 0.0 | 0.00 | 0.00 | 0.00 | 80 | 1014.0 |
| 20260507193339 | 17 | 129 | 0.0 | 0.0 | 0.00 | 0.00 | 0.00 | 80 | 1014.0 |
| 20260507192844 | 17 | 129 | 0.0 | 0.0 | 0.00 | 0.00 | 0.00 | 79 | 1014.0 |
| 20260507192336 | 17 | 129 | 0.0 | 0.0 | 0.00 | 0.00 | 0.00 | 79 | 1013.9 |
| 20260507191845 | 17 | 129 | 0.0 | 0.0 | 0.00 | 0.00 | 0.00 | 79 | 1013.8 |
| 20260507191336 | 17 | 128 | 0.0 | 0.0 | 0.00 | 0.00 | 0.00 | 79 | 1013.8 |
| 20260507190842 | 17 | 128 | 0.0 | 0.0 | 0.00 | 0.00 | 0.00 | 79 | 1013.7 |
| 20260507190335 | 17 | 128 | 0.0 | 0.0 | 0.00 | 0.00 | 0.00 | 79 | 1013.7 |
| 20260507185829 | 17 | 128 | 0.0 | 0.0 | 0.00 | 0.00 | 0.00 | 79 | 1013.7 |
| 20260507185344 | 17 | 129 | 0.0 | 0.0 | 0.00 | 0.00 | 0.00 | 79 | 1013.8 |
| 20260507184848 | 17 | 128 | 0.0 | 0.0 | 0.00 | 0.00 | 0.00 | 78 | 1013.8 |
| 20260507184338 | 17 | 126 | 0.0 | 0.0 | 0.00 | 0.00 | 0.00 | 78 | 1013.8 |
| 20260507183844 | 17 | 125 | 0.0 | 0.0 | 0.00 | 0.00 | 0.00 | 78 | 1013.8 |
| 20260507183337 | 17 | 96 | 0.0 | 0.0 | 0.00 | 0.00 | 0.00 | 77 | 1013.8 |
| 20260507181845 | 17 | 115 | 0.0 | 0.0 | 0.00 | 0.00 | 0.00 | 78 | 1013.6 |
| 20260507175839 | 17 | 113 | 0.0 | 0.0 | 0.00 | 0.00 | 0.00 | 77 | 1013.4 |
| 20260507175348 | 18 | 85 | 0.0 | 0.0 | 0.00 | 0.00 | 0.00 | 78 | 1013.4 |
| 20260507174345 | 18 | 84 | 0.0 | 8.0 | 0.00 | 0.00 | 0.00 | 77 | 1013.2 |
| 20260507173830 | 18 | 80 | 1.6 | 8.0 | 0.00 | 0.00 | 0.00 | 78 | 1013.2 |
| 20260507173343 | 17 | 71 | 3.2 | 8.0 | 0.00 | 0.00 | 0.00 | 78 | 1013.3 |
| 20260507172849 | 18 | 78 | 3.2 | 11.3 | 0.00 | 0.00 | 0.00 | 77 | 1013.3 |
| 20260507172341 | 18 | 99 | 4.8 | 14.5 | 0.00 | 0.00 | 0.00 | 77 | 1013.3 |
| 20260507171846 | 18 | 130 | 6.4 | 14.5 | 0.00 | 0.00 | 0.00 | 77 | 1013.3 |
| 20260507170847 | 18 | 67 | 6.4 | 14.5 | 0.00 | 0.00 | 0.00 | 78 | 1013.3 |
| 20260507170339 | 18 | 101 | 9.7 | 14.5 | 0.00 | 0.00 | 0.00 | 77 | 1013.3 |
| 20260507165837 | 18 | 116 | 4.8 | 16.1 | 0.00 | 0.00 | 0.00 | 78 | 1013.4 |
| 20260507164330 | 18 | 128 | 8.0 | 14.5 | 0.00 | 0.00 | 0.00 | 77 | 1013.3 |
| 20260507161842 | 18 | 104 | 6.4 | 12.9 | 0.00 | 0.00 | 0.00 | 76 | 1013.0 |
| 20260507161333 | 18 | 138 | 6.4 | 14.5 | 0.00 | 0.00 | 0.00 | 76 | 1013.0 |
| 20260507160840 | 18 | 123 | 8.0 | 14.5 | 0.00 | 0.00 | 0.00 | 75 | 1012.9 |
| 20260507160332 | 18 | 49 | 0.0 | 1.6 | 0.00 | 0.00 | 0.00 | 75 | 1012.9 |
| 20260507155848 | 18 | 144 | 0.0 | 12.9 | 0.00 | 0.00 | 0.00 | 75 | 1012.9 |
| 20260507155339 | 18 | 157 | 6.4 | 14.5 | 0.00 | 0.00 | 0.00 | 74 | 1012.9 |
| 20260507154846 | 18 | 64 | 4.8 | 14.5 | 0.00 | 0.00 | 0.00 | 76 | 1012.9 |
| 20260507154337 | 18 | 151 | 6.4 | 14.5 | 0.00 | 0.00 | 0.00 | 76 | 1012.9 |
| 20260507153843 | 18 | 142 | 9.7 | 17.7 | 0.00 | 0.00 | 0.00 | 76 | 1013.0 |
| 20260507153333 | 18 | 142 | 9.7 | 17.7 | 0.00 | 0.00 | 0.00 | 75 | 1013.0 |
| 20260507152840 | 18 | 60 | 6.4 | 14.5 | 0.00 | 0.00 | 0.00 | 76 | 1012.9 |
| 20260507152331 | 18 | 59 | 6.4 | 20.9 | 0.00 | 0.00 | 0.00 | 77 | 1013.0 |
| 20260507151835 | 18 | 125 | 6.4 | 12.9 | 0.00 | 0.00 | 0.00 | 76 | 1012.9 |
| 20260507150834 | 18 | 115 | 8.0 | 17.7 | 0.00 | 0.00 | 0.00 | 76 | 1012.9 |
| 20260507145845 | 18 | 56 | 8.0 | 17.7 | 0.00 | 0.00 | 0.00 | 76 | 1013.0 |
| 20260507145335 | 18 | 123 | 8.0 | 17.7 | 0.00 | 0.00 | 0.00 | 76 | 1013.0 |
| 20260507144838 | 18 | 132 | 9.7 | 17.7 | 0.00 | 0.00 | 0.00 | 75 | 1013.1 |
| 20260507144329 | 18 | 58 | 9.7 | 24.1 | 0.00 | 0.00 | 0.00 | 76 | 1013.2 |
| 20260507143837 | 18 | 120 | 11.3 | 24.1 | 0.00 | 0.00 | 0.00 | 75 | 1013.2 |
| 20260507143348 | 18 | 102 | 9.7 | 17.7 | 0.00 | 0.00 | 0.00 | 75 | 1013.3 |
| 20260507142345 | 18 | 82 | 8.0 | 22.5 | 0.00 | 0.00 | 0.00 | 76 | 1013.5 |
| 20260507141832 | 18 | 113 | 8.0 | 20.9 | 0.00 | 0.00 | 0.00 | 77 | 1013.5 |
| 20260507140827 | 18 | 115 | 11.3 | 22.5 | 0.00 | 0.00 | 0.00 | 76 | 1013.7 |
| 20260507140340 | 18 | 94 | 9.7 | 22.5 | 0.00 | 0.00 | 0.00 | 76 | 1013.6 |
| 20260507135838 | 18 | 109 | 12.9 | 17.7 | 0.00 | 0.00 | 0.00 | 76 | 1013.6 |
| 20260507135329 | 18 | 114 | 11.3 | 17.7 | 0.00 | 0.00 | 0.00 | 76 | 1013.6 |
| 20260507134837 | 18 | 129 | 11.3 | 19.3 | 0.00 | 0.00 | 0.00 | 75 | 1013.7 |
| 20260507134331 | 18 | 83 | 11.3 | 19.3 | 0.00 | 0.00 | 0.00 | 75 | 1013.7 |
| 20260507133840 | 19 | 69 | 8.0 | 20.9 | 0.00 | 0.00 | 0.00 | 76 | 1013.6 |
| 20260507133331 | 19 | 100 | 11.3 | 20.9 | 0.00 | 0.00 | 0.00 | 74 | 1013.7 |
| 20260507132332 | 19 | 115 | 9.7 | 17.7 | 0.00 | 0.00 | 0.00 | 74 | 1014.0 |
| 20260507131835 | 18 | 53 | 8.0 | 22.5 | 0.00 | 0.00 | 0.00 | 74 | 1014.0 |
| 20260507131346 | 19 | 120 | 9.7 | 22.5 | 0.00 | 0.00 | 0.00 | 74 | 1014.0 |
| 20260507125846 | 19 | 115 | 9.7 | 20.9 | 0.00 | 0.00 | 0.00 | 73 | 1014.0 |
| 20260507125337 | 19 | 99 | 12.9 | 20.9 | 0.00 | 0.00 | 0.00 | 74 | 1014.1 |
| 20260507124844 | 19 | 109 | 9.7 | 19.3 | 0.00 | 0.00 | 0.00 | 74 | 1014.1 |
| 20260507123843 | 19 | 85 | 8.0 | 20.9 | 0.00 | 0.00 | 0.00 | 73 | 1014.1 |
| 20260507123338 | 19 | 116 | 11.3 | 19.3 | 0.00 | 0.00 | 0.00 | 73 | 1014.2 |
| 20260507122844 | 19 | 125 | 11.3 | 19.3 | 0.00 | 0.00 | 0.00 | 73 | 1014.2 |
| 20260507122337 | 19 | 137 | 12.9 | 19.3 | 0.00 | 0.00 | 0.00 | 72 | 1014.2 |
| 20260507121336 | 19 | 84 | 11.3 | 17.7 | 0.00 | 0.00 | 0.00 | 72 | 1014.3 |
| 20260507120843 | 19 | 71 | 8.0 | 19.3 | 0.00 | 0.00 | 0.00 | 72 | 1014.4 |
| 20260507115333 | 19 | 68 | 9.7 | 22.5 | 0.00 | 0.00 | 0.00 | 73 | 1014.6 |
| 20260507114841 | 19 | 123 | 11.3 | 24.1 | 0.00 | 0.00 | 0.00 | 73 | 1014.8 |
| 20260507114333 | 19 | 96 | 11.3 | 24.1 | 0.00 | 0.00 | 0.00 | 74 | 1014.8 |
| 20260507113840 | 19 | 113 | 8.0 | 20.9 | 0.00 | 0.00 | 0.00 | 74 | 1014.8 |
| 20260507113331 | 18 | 126 | 11.3 | 20.9 | 0.00 | 0.00 | 0.00 | 74 | 1014.8 |
| 20260507112334 | 19 | 100 | 8.0 | 22.5 | 0.00 | 0.00 | 0.00 | 74 | 1014.9 |
| 20260507111840 | 19 | 149 | 11.3 | 22.5 | 0.00 | 0.00 | 0.00 | 74 | 1014.9 |
| 20260507111332 | 19 | 75 | 11.3 | 22.5 | 0.00 | 0.00 | 0.00 | 74 | 1014.9 |
| 20260507110838 | 19 | 125 | 8.0 | 20.9 | 0.00 | 0.00 | 0.00 | 74 | 1015.0 |
| 20260507110329 | 19 | 82 | 8.0 | 19.3 | 0.00 | 0.00 | 0.00 | 74 | 1015.0 |
| 20260507105848 | 19 | 88 | 9.7 | 19.3 | 0.00 | 0.00 | 0.00 | 73 | 1015.0 |
| 20260507105338 | 19 | 123 | 9.7 | 22.5 | 0.00 | 0.00 | 0.00 | 73 | 1015.0 |
| 20260507104844 | 19 | 60 | 9.7 | 20.9 | 0.00 | 0.00 | 0.00 | 72 | 1015.1 |
| 20260507104336 | 19 | 142 | 11.3 | 22.5 | 0.00 | 0.00 | 0.00 | 71 | 1015.2 |
| 20260507103839 | 19 | 62 | 9.7 | 20.9 | 0.00 | 0.00 | 0.00 | 72 | 1015.1 |
| 20260507103330 | 19 | 97 | 9.7 | 20.9 | 0.00 | 0.00 | 0.00 | 71 | 1015.1 |
| 20260507102836 | 18 | 117 | 9.7 | 20.9 | 0.00 | 0.00 | 0.00 | 73 | 1015.0 |
| 20260507101835 | 19 | 115 | 9.7 | 22.5 | 0.00 | 0.00 | 0.00 | 73 | 1015.2 |
| 20260507101345 | 19 | 87 | 8.0 | 22.5 | 0.00 | 0.00 | 0.00 | 74 | 1015.2 |
| 20260507100830 | 18 | 88 | 6.4 | 19.3 | 0.00 | 0.00 | 0.00 | 75 | 1015.2 |
| 20260507100341 | 18 | 111 | 11.3 | 19.3 | 0.00 | 0.00 | 0.00 | 75 | 1015.3 |
| 20260507095839 | 18 | 98 | 8.0 | 16.1 | 0.00 | 0.00 | 0.00 | 76 | 1015.2 |
| 20260507095331 | 18 | 63 | 8.0 | 16.1 | 0.00 | 0.00 | 0.00 | 76 | 1015.3 |
| 20260507094834 | 18 | 96 | 8.0 | 17.7 | 0.00 | 0.00 | 0.00 | 76 | 1015.2 |
| 20260507094330 | 18 | 68 | 14.5 | 17.7 | 0.00 | 0.00 | 0.00 | 76 | 1015.4 |
| 20260507093836 | 18 | 28 | 9.7 | 16.1 | 0.00 | 0.00 | 0.00 | 77 | 1015.3 |
| 20260507093349 | 18 | 67 | 6.4 | 17.7 | 0.00 | 0.00 | 0.00 | 76 | 1015.2 |
| 20260507092834 | 18 | 61 | 9.7 | 19.3 | 0.00 | 0.00 | 0.00 | 76 | 1015.2 |
| 20260507092346 | 18 | 50 | 9.7 | 19.3 | 0.00 | 0.00 | 0.00 | 76 | 1015.2 |
| 20260507091340 | 18 | 80 | 8.0 | 14.5 | 0.00 | 0.00 | 0.00 | 74 | 1015.3 |
| 20260507090847 | 18 | 38 | 8.0 | 16.1 | 0.00 | 0.00 | 0.00 | 76 | 1015.2 |
| 20260507090338 | 18 | 73 | 9.7 | 16.1 | 0.00 | 0.00 | 0.00 | 76 | 1015.2 |
| 20260507085836 | 18 | 56 | 4.8 | 16.1 | 0.00 | 0.00 | 0.00 | 75 | 1015.2 |
| 20260507085331 | 18 | 100 | 6.4 | 17.7 | 0.00 | 0.00 | 0.00 | 76 | 1015.2 |
| 20260507084833 | 18 | 54 | 6.4 | 16.1 | 0.00 | 0.00 | 0.00 | 76 | 1015.2 |
| 20260507083847 | 18 | 63 | 6.4 | 14.5 | 0.00 | 0.00 | 0.00 | 76 | 1015.1 |
| 20260507083339 | 18 | 64 | 6.4 | 16.1 | 0.00 | 0.00 | 0.00 | 77 | 1015.2 |
| 20260507082338 | 17 | 75 | 8.0 | 17.7 | 0.00 | 0.00 | 0.00 | 78 | 1015.1 |
| 20260507081339 | 17 | 35 | 6.4 | 14.5 | 0.00 | 0.00 | 0.00 | 78 | 1015.1 |
| 20260507080844 | 17 | 100 | 6.4 | 25.7 | 0.00 | 0.00 | 0.00 | 77 | 1015.0 |
| 20260507080334 | 17 | 96 | 9.7 | 25.7 | 0.00 | 0.00 | 0.00 | 78 | 1015.1 |
| 20260507075831 | 17 | 64 | 8.0 | 12.9 | 0.00 | 0.00 | 0.00 | 78 | 1015.0 |
| 20260507075343 | 17 | 88 | 4.8 | 12.9 | 0.00 | 0.00 | 0.00 | 80 | 1015.0 |
| 20260507074848 | 17 | 48 | 4.8 | 16.1 | 0.00 | 0.00 | 0.00 | 80 | 1015.0 |
| 20260507074340 | 17 | 74 | 9.7 | 16.1 | 0.00 | 0.00 | 0.00 | 79 | 1015.0 |
| 20260507073343 | 17 | 37 | 6.4 | 17.7 | 0.00 | 0.00 | 0.00 | 80 | 1014.9 |
| 20260507072848 | 17 | 48 | 9.7 | 12.9 | 0.00 | 0.00 | 0.00 | 79 | 1014.9 |
| 20260507072341 | 17 | 75 | 8.0 | 14.5 | 0.00 | 0.00 | 0.00 | 80 | 1014.9 |
| 20260507071847 | 17 | 17 | 6.4 | 11.3 | 0.00 | 0.00 | 0.00 | 81 | 1014.9 |
| 20260507071339 | 17 | 57 | 6.4 | 12.9 | 0.00 | 0.00 | 0.00 | 81 | 1014.9 |
| 20260507070828 | 17 | 40 | 8.0 | 16.1 | 0.00 | 0.00 | 0.00 | 82 | 1014.9 |
| 20260507070342 | 17 | 67 | 8.0 | 16.1 | 0.00 | 0.00 | 0.00 | 82 | 1015.0 |
| 20260507065839 | 17 | 69 | 8.0 | 17.7 | 0.00 | 0.00 | 0.00 | 82 | 1014.9 |
| 20260507065349 | 17 | 77 | 4.8 | 16.1 | 0.00 | 0.00 | 0.00 | 83 | 1014.9 |
| 20260507064833 | 17 | 34 | 9.7 | 16.1 | 0.00 | 0.00 | 0.00 | 83 | 1014.9 |
| 20260507064328 | 17 | 36 | 6.4 | 12.9 | 0.00 | 0.00 | 0.00 | 83 | 1015.0 |
| 20260507063833 | 17 | 28 | 4.8 | 12.9 | 0.00 | 0.00 | 0.00 | 84 | 1015.0 |
| 20260507063345 | 17 | 75 | 4.8 | 12.9 | 0.00 | 0.00 | 0.00 | 84 | 1015.0 |
| 20260507062832 | 16 | 67 | 3.2 | 12.9 | 0.00 | 0.00 | 0.00 | 85 | 1014.9 |
| 20260507062345 | 16 | 32 | 6.4 | 14.5 | 0.00 | 0.00 | 0.00 | 85 | 1015.0 |
| 20260507061832 | 16 | 59 | 4.8 | 12.9 | 0.00 | 0.00 | 0.00 | 85 | 1015.0 |
| 20260507060342 | 16 | 48 | 3.2 | 6.4 | 0.00 | 0.00 | 0.00 | 86 | 1014.9 |
| 20260507055330 | 15 | 51 | 3.2 | 9.7 | 0.00 | 0.00 | 0.00 | 87 | 1014.8 |
| 20260507054838 | 15 | 2 | 0.0 | 1.6 | 0.00 | 0.00 | 0.00 | 84 | 1014.8 |
| 20260507054331 | 15 | 2 | 0.0 | 3.2 | 0.00 | 0.00 | 0.00 | 84 | 1014.6 |
| 20260507053835 | 15 | 2 | 0.0 | 3.2 | 0.00 | 0.00 | 0.00 | 86 | 1014.6 |
| 20260507053332 | 14 | 7 | 0.0 | 4.8 | 0.00 | 0.00 | 0.00 | 86 | 1014.5 |
| 20260507052839 | 13 | 350 | 1.6 | 4.8 | 0.00 | 0.00 | 0.00 | 85 | 1014.5 |
| 20260507052332 | 13 | 298 | 0.0 | 0.0 | 0.00 | 0.00 | 0.00 | 85 | 1014.5 |
| 20260507051838 | 13 | 298 | 0.0 | 0.0 | 0.00 | 0.00 | 0.00 | 84 | 1014.4 |
| 20260507051349 | 13 | 298 | 0.0 | 0.0 | 0.00 | 0.00 | 0.00 | 84 | 1014.3 |
| 20260507050836 | 13 | 298 | 0.0 | 0.0 | 0.00 | 0.00 | 0.00 | 84 | 1014.2 |
| 20260507050347 | 13 | 298 | 0.0 | 0.0 | 0.00 | 0.00 | 0.00 | 84 | 1014.3 |
| 20260507045843 | 13 | 298 | 0.0 | 0.0 | 0.00 | 0.00 | 0.00 | 84 | 1014.1 |
| 20260507045334 | 13 | 298 | 0.0 | 0.0 | 0.00 | 0.00 | 0.00 | 83 | 1014.0 |
| 20260507044841 | 13 | 298 | 0.0 | 0.0 | 0.00 | 0.00 | 0.00 | 83 | 1014.0 |
| 20260507044333 | 13 | 298 | 0.0 | 0.0 | 0.00 | 0.00 | 0.00 | 83 | 1014.0 |
| 20260507043838 | 13 | 298 | 0.0 | 0.0 | 0.00 | 0.00 | 0.00 | 83 | 1014.1 |
| 20260507043331 | 13 | 298 | 0.0 | 0.0 | 0.00 | 0.00 | 0.00 | 83 | 1014.1 |
| 20260507042838 | 13 | 298 | 0.0 | 0.0 | 0.00 | 0.00 | 0.00 | 83 | 1014.1 |
| 20260507042331 | 13 | 298 | 0.0 | 0.0 | 0.00 | 0.00 | 0.00 | 83 | 1014.2 |
| 20260507041835 | 13 | 298 | 0.0 | 0.0 | 0.00 | 0.00 | 0.00 | 83 | 1014.2 |
| 20260507041346 | 13 | 298 | 0.0 | 0.0 | 0.00 | 0.00 | 0.00 | 82 | 1014.2 |
| 20260507040835 | 13 | 298 | 0.0 | 0.0 | 0.00 | 0.00 | 0.00 | 82 | 1014.2 |
| 20260507040346 | 13 | 298 | 0.0 | 0.0 | 0.00 | 0.00 | 0.00 | 82 | 1014.2 |
| 20260507035843 | 13 | 298 | 0.0 | 0.0 | 0.00 | 0.00 | 0.00 | 82 | 1014.1 |
| 20260507034845 | 13 | 298 | 0.0 | 0.0 | 0.00 | 0.00 | 0.00 | 81 | 1014.1 |
| 20260507034338 | 13 | 298 | 0.0 | 0.0 | 0.00 | 0.00 | 0.00 | 81 | 1014.2 |
| 20260507033845 | 13 | 298 | 0.0 | 0.0 | 0.00 | 0.00 | 0.00 | 80 | 1014.1 |
| 20260507033336 | 13 | 298 | 0.0 | 0.0 | 0.00 | 0.00 | 0.00 | 80 | 1014.1 |
| 20260507032841 | 13 | 298 | 0.0 | 0.0 | 0.00 | 0.00 | 0.00 | 80 | 1014.0 |
| 20260507032331 | 13 | 298 | 0.0 | 0.0 | 0.00 | 0.00 | 0.00 | 80 | 1014.0 |
| 20260507031837 | 13 | 298 | 0.0 | 0.0 | 0.00 | 0.00 | 0.00 | 80 | 1014.0 |
| 20260507031349 | 13 | 298 | 0.0 | 0.0 | 0.00 | 0.00 | 0.00 | 79 | 1014.0 |
| 20260507030348 | 13 | 298 | 0.0 | 0.0 | 0.00 | 0.00 | 0.00 | 79 | 1014.0 |